Content
SEND FEEDBACK

Daily
Averages
Monthly
Summary
United States of America

FORT PECK, MONTANA


Home > North America > United States > Montana
Elevation: 2082 feet     Latitude: 48 11N     Longitude: 106 38W

WEATHER
 
SELECT A DAY
Number of Records: 197,809;   Date Range: 1/1/95 - 9/21/14
 
SHARE

PRINT THIS DATA

[ ← Previous Day ]
WEATHER ALMANAC - FEBRUARY 5, 2013
[ Next Day → ]
[ °C ]   °F
Weather ElementAverageHighLow
Temperature27.2 °F33.1 °F (1:53 pm)19.9 °F (5:53 am)
Dewpoint23.3 °F26.1 °F (1:53 pm)18 °F (5:53 am)
Humidity85.1 %92 % (5:53 am)75 % (1:53 pm)
Barometer29.88 in30.01 in (6:53 am)29.71 in (10:53 pm)
Wind Speed8.1 mph15 mph (4:53 pm)
Weather ElementAverage
Visibility10 mi
Wind DirectionESE (118.3 °)

Weather ElementTotal
Precipitation---
Heating Degree Days38.5 (Base 65)
Averaged from 23 records on February 5, 2013
WEATHER CONDITIONS BREAKOUT
WIND DIRECTION BREAKOUT
WEATHER BY HOUR - FEBRUARY 5, 2013
[ °C ]   °F
Local TimeTemperatureDewpointHumidityBarometerVisibilityWind DirectionWind SpeedGust SpeedPrecipitationEventsConditions
1:53 AM30.0 °F24.1 °F79 %29.96 in10.0 miWest (270°)5.8 mphOvercast
2:53 AM26.1 °F21.9 °F84 %29.97 in10.0 miWest (270°)10.4 mphPartly Cloudy
3:53 AM25.0 °F21.9 °F88 %29.98 in10.0 miNW (310°)6.9 mphScattered Clouds
4:53 AM23.0 °F19.9 °F88 %29.99 in10.0 miWest (270°)5.8 mphScattered Clouds
5:53 AM19.9 °F18.0 °F92 %30.00 in10.0 miCalmClear
6:53 AM21.0 °F19.0 °F92 %30.01 in10.0 miCalmPartly Cloudy
7:53 AM21.9 °F19.9 °F92 %30.01 in10.0 miCalmOvercast
8:53 AM24.1 °F21.0 °F88 %30.01 in10.0 miCalmOvercast
9:53 AM28.0 °F23.0 °F81 %30.00 in10.0 miCalmOvercast
10:53 AM28.0 °F23.0 °F81 %29.99 in10.0 miSSE (150°)5.8 mphScattered Clouds
11:53 AM28.9 °F24.1 °F82 %29.96 in10.0 miESE (120°)9.2 mphScattered Clouds
12:53 PM30.9 °F25.0 °F79 %29.91 in10.0 miSE (130°)10.4 mphOvercast
1:53 PM33.1 °F26.1 °F75 %29.87 in10.0 miESE (110°)12.7 mphOvercast
2:53 PM32.0 °F26.1 °F79 %29.84 in10.0 miESE (110°)12.7 mphClear
3:53 PM32.0 °F26.1 °F79 %29.81 in10.0 miESE (110°)13.8 mphScattered Clouds
4:53 PM30.0 °F26.1 °F85 %29.80 in10.0 miESE (110°)15.0 mphClear
5:53 PM28.0 °F24.1 °F85 %29.79 in10.0 miEast (100°)15.0 mphClear
6:53 PM27.0 °F24.1 °F89 %29.78 in10.0 miEast (100°)12.7 mphMostly Cloudy
7:53 PM28.0 °F24.1 °F85 %29.75 in10.0 miEast (100°)11.5 mphOvercast
8:53 PM28.9 °F25.0 °F85 %29.73 in10.0 miESE (110°)12.7 mphMostly Cloudy
9:53 PM28.9 °F26.1 °F89 %29.72 in10.0 miESE (110°)10.4 mphOvercast
10:53 PM27.0 °F24.1 °F89 %29.71 in10.0 miESE (110°)8.1 mphClear
11:53 PM25.0 °F23.0 °F92 %29.72 in10.0 miSE (130°)8.1 mphClear
Hourly data recorded from KGGW, located miles away from Fort Peck, Montana







STORIES FROM OUR PARTNERS